Flag for Germany Weather past 2 weeks in Lübeck, Schleswig-Holstein, Germany

Now
34 °F

Clear.


Feels Like: 29 °F
Forecast: 36 / 46 °F
Wind: 6 mph from Northwest

Location: Hamburg-Fuhlsbuettel

Current Time: Mar 5, 2015 at 4:03:27 AM

Latest Report: Mar 5, 2015 at 2:50 AM


Visibility: 10 mi

Pressure: 30.39 "Hg

Humidity: 93%

Dew point: 32 °F

Location of LübeckLocation

Historic Weather in Lübeck — Graph

°F

Lübeck temperature yesterday

Maximum temperature yesterday: 41 °F (at 10:50 AM)
Minimum temperature yesterday: 34 °F (at 3:50 AM)
Average temperature yesterday: 38 °F

Past Weeks' High & Low Weather Summary

 TemperatureHumidityPressure
High46 °F (Feb 25, 3:20 PM)100% (Feb 18, 2:20 AM)30.69 "Hg (Feb 18, 2:20 AM)
Low32 °F (Feb 18, 7:20 AM)57% (Feb 25, 3:20 PM)29.24 "Hg (Feb 21, 9:50 AM)
Average39 °F85%29.82 "Hg
* Reported Feb 18 2:20 AM — Mar 5 2:50 AM, Lübeck, Weather by CustomWeather, © 2015

Note: Actual official high and low records may vary slightly from our data, if they occured in-between our weather recording intervals... More about our weather records

Advertising

Lübeck weather history for previous 24 hours

 ConditionsComfort  
Time TempWeatherWind HumidityBarometerVisibility
2:50 AM
Thu, Mar 5
34 °FClear.6 mph93%30.39 "Hg10 mi
2:20 AM36 °FClear.7 mph87%30.39 "Hg10 mi
1:50 AM36 °FClear.9 mph93%30.36 "Hg10 mi
1:20 AM36 °FPassing clouds.12 mph93%30.36 "HgN/A
12:50 AM37 °FPassing clouds.14 mph87%30.33 "HgN/A
12:20 AM39 °FPassing clouds.12 mph81%30.30 "HgN/A
11:50 PM
Wed, Mar 4
39 °FPassing clouds.16 mph81%30.27 "HgN/A
11:20 PM39 °FPassing clouds.15 mph81%30.24 "HgN/A
10:20 PM39 °FPartly cloudy.16 mph87%30.18 "HgN/A
9:50 PM39 °FSprinkles. Passing clouds.20 mph87%30.18 "HgN/A
9:20 PM39 °FSprinkles. Passing clouds.17 mph87%30.15 "HgN/A
8:50 PM39 °FSprinkles. Passing clouds.13 mph87%30.12 "HgN/A
8:20 PM39 °FSprinkles. Passing clouds.16 mph87%30.09 "HgN/A
7:50 PM41 °FSprinkles. Passing clouds.15 mph87%30.09 "HgN/A
7:20 PM39 °FSprinkles. Passing clouds.8 mph93%30.09 "HgN/A
6:50 PM39 °FSprinkles. Passing clouds.8 mph93%30.09 "HgN/A
6:20 PM39 °FSprinkles. Partly cloudy.13 mph93%30.07 "HgN/A
5:50 PM37 °FSprinkles. Broken clouds.12 mph93%30.07 "HgN/A
5:20 PM39 °FSprinkles. Scattered clouds.15 mph93%30.07 "HgN/A
4:50 PM41 °FSprinkles. Partly sunny.13 mph87%30.07 "HgN/A
4:20 PM41 °FSprinkles. Scattered clouds.12 mph87%30.04 "HgN/A
3:50 PM41 °FPartly sunny.15 mph87%30.04 "HgN/A
3:20 PM41 °FScattered clouds.8 mph87%30.04 "HgN/A
2:50 PM39 °FHail. Partly sunny.18 mph87%30.04 "HgN/A
2:20 PM41 °FSprinkles. Partly sunny.13 mph81%30.04 "HgN/A
1:50 PM41 °FScattered showers. Scattered clouds.15 mph87%30.04 "HgN/A
1:20 PM41 °FSprinkles. Broken clouds.12 mph87%30.04 "HgN/A
12:50 PM41 °FSprinkles. Partly sunny.12 mph81%30.04 "HgN/A
12:20 PM41 °FBroken clouds.14 mph81%30.04 "HgN/A
11:50 AM41 °FPartly sunny.14 mph81%30.04 "HgN/A
11:20 AM41 °FPartly sunny.14 mph81%30.04 "HgN/A
10:50 AM41 °FScattered clouds.16 mph81%30.01 "HgN/A
10:20 AM37 °FSprinkles. Partly sunny.13 mph93%30.04 "HgN/A
9:50 AM37 °FSprinkles. Partly sunny.14 mph87%30.01 "HgN/A
9:20 AM37 °FPartly sunny.15 mph87%30.01 "HgN/A
8:50 AM36 °FScattered clouds.13 mph93%30.01 "HgN/A
8:20 AM36 °FBroken clouds.12 mph87%30.01 "HgN/A
7:50 AM34 °FPartly sunny.10 mph93%29.98 "HgN/A
7:20 AM34 °FPartly sunny.9 mph93%29.98 "HgN/A
6:50 AM34 °FPassing clouds.12 mph93%29.98 "HgN/A
6:20 AM34 °FPassing clouds.12 mph93%29.98 "HgN/A
5:50 AM34 °FClear.10 mph93%29.98 "Hg10 mi
5:20 AM34 °FPassing clouds.7 mph93%29.98 "HgN/A
4:50 AM34 °FPassing clouds.8 mph93%29.95 "HgN/A
4:20 AM34 °FSnow flurries. Passing clouds.9 mph93%29.95 "HgN/A
Weather by CustomWeather, © 2015

See weather overviewHow to use our weather pages